Location: Pompeys Pillar
(45.9913°N, 107.9528°W)
Time: 02:35:27
(UTC+00:00)

ISS - Visible Passes

Search period start: 19 January 2022 00:00
Search period end: 29 January 2022 00:00
Orbit: 413 x 423 km, 51.6° (Epoch: 18 January)

Date Brightness Start Highest point End Pass type
(mag) Time Alt. Az. Time Alt. Az. Time Alt. Az.
19 Jan -1.7 00:58:46 10° S 01:00:52 16° SE 01:02:14 13° ESE visible
19 Jan -1.3 02:33:54 10° WSW 02:35:11 21° WSW 02:35:11 21° WSW visible
20 Jan -3.7 01:46:01 10° SW 01:49:18 61° SSE 01:49:25 60° SE visible
21 Jan -3.0 00:58:18 10° SSW 01:01:25 38° SE 01:03:34 17° E visible
21 Jan -1.4 02:34:56 10° W 02:36:31 24° W 02:36:31 24° W visible
22 Jan -3.6 01:46:49 10° WSW 01:50:07 62° NNW 01:50:36 54° NNE visible
23 Jan -3.8 00:58:46 10° WSW 01:02:06 90° NNW 01:04:39 16° ENE visible
23 Jan -1.3 02:36:06 10° WNW 02:37:35 21° WNW 02:37:35 21° WNW visible
24 Jan -2.9 01:47:53 10° W 01:51:02 37° NNW 01:51:34 35° N visible
25 Jan -3.1 00:59:41 10° W 01:02:56 47° NNW 01:05:32 15° NE visible
25 Jan -1.2 02:37:12 10° WNW 02:38:28 19° NW 02:38:28 19° NW visible
26 Jan -2.6 01:49:01 10° WNW 01:52:00 30° N 01:52:24 29° N visible
27 Jan -2.6 01:00:46 10° WNW 01:03:50 32° N 01:06:20 14° NE visible
27 Jan -1.3 02:38:03 10° WNW 02:39:16 19° NW 02:39:16 19° NW visible
28 Jan -2.7 01:49:57 10° WNW 01:52:58 30° N 01:53:12 30° NNE visible
